When you browse on this site, cookies collect data to enhance your experience and personalize the content and advertising you see.
Visit our Privacy Policy to learn more. By continuing to use the site, you agree to this use of cookies and data.
  • In Romania
  • List of Countries
  • For 7 days
  • Water Temperature
  • Satellite Maps
  • Weather Map
  • Weather Widgets
  • user-avatar
    Login

    Hourly Weather Mendoza

    Today, 16 June, Sunday

    Time Temperature Precipitation Wind Pressure Humidity
    00:00 +4°C° 0.2 mm 2 mps 706 mmHg 87%
    01:00 +4°C° 0 mm 2 mps 705 mmHg 85%
    02:00 +4°C° 0 mm 2 mps 705 mmHg 82%
    03:00 +4°C° 0 mm 2 mps 705 mmHg 79%
    04:00 +4°C° 0 mm 2 mps 705 mmHg 77%
    05:00 +4°C° 0 mm 2 mps 705 mmHg 75%
    06:00 +3°C° 0 mm 2 mps 705 mmHg 73%
    07:00 +3°C° 0 mm 2 mps 705 mmHg 71%
    08:00 +5°C° 0 mm 2 mps 705 mmHg 65%
    09:00 +6°C° 0 mm 2 mps 705 mmHg 58%
    10:00 +8°C° 0 mm 2 mps 705 mmHg 52%
    11:00 +8°C° 0 mm 2 mps 704 mmHg 51%
    12:00 +8°C° 0 mm 2 mps 703 mmHg 49%
    13:00 +9°C° 0 mm 2 mps 703 mmHg 48%
    14:00 +9°C° 0 mm 2 mps 703 mmHg 50%
    15:00 +9°C° 0 mm 2 mps 703 mmHg 53%
    16:00 +9°C° 0 mm 3 mps 702 mmHg 55%
    17:00 +8°C° 0 mm 2 mps 702 mmHg 63%
    18:00 +7°C° 0 mm 2 mps 703 mmHg 71%
    19:00 +7°C° 0 mm 1 mps 703 mmHg 78%
    20:00 +7°C° 0 mm 1 mps 703 mmHg 79%
    21:00 +6°C° 0 mm 1 mps 703 mmHg 80%
    22:00 +5°C° 0 mm 0 mps 703 mmHg 81%
    23:00 +5°C° 0 mm 0 mps 702 mmHg 80%

    Tomorrow, 17 June, Monday

    Time Temperature Precipitation Wind Pressure Humidity
    00:00 +5°C° 0 mm 0 mps 702 mmHg 79%
    01:00 +6°C° 0 mm 1 mps 701 mmHg 78%
    02:00 +5°C° 0 mm 0 mps 701 mmHg 78%
    03:00 +4°C° 0 mm 0 mps 700 mmHg 78%
    04:00 +4°C° 0 mm 0 mps 700 mmHg 78%
    05:00 +4°C° 0 mm 0 mps 700 mmHg 76%
    06:00 +5°C° 0 mm 1 mps 700 mmHg 75%
    07:00 +5°C° 0 mm 1 mps 700 mmHg 73%
    08:00 +6°C° 0 mm 1 mps 699 mmHg 67%
    09:00 +7°C° 0 mm 1 mps 699 mmHg 62%
    10:00 +8°C° 0 mm 2 mps 699 mmHg 56%
    11:00 +8°C° 0 mm 2 mps 699 mmHg 54%
    12:00 +9°C° 0 mm 2 mps 698 mmHg 51%
    13:00 +9°C° 0 mm 2 mps 698 mmHg 49%
    14:00 +9°C° 0 mm 2 mps 698 mmHg 48%
    15:00 +9°C° 0 mm 2 mps 698 mmHg 48%
    16:00 +10°C° 0 mm 2 mps 698 mmHg 48%
    17:00 +9°C° 0 mm 2 mps 699 mmHg 48%
    18:00 +8°C° 0 mm 2 mps 699 mmHg 48%
    19:00 +8°C° 0 mm 2 mps 699 mmHg 48%
    20:00 +7°C° 0 mm 2 mps 700 mmHg 50%
    21:00 +7°C° 0 mm 2 mps 701 mmHg 51%
    22:00 +7°C° 0 mm 2 mps 701 mmHg 53%
    23:00 +6°C° 0 mm 2 mps 701 mmHg 52%

    Day after tomorrow, 18 June, Tuesday

    Time Temperature Precipitation Wind Pressure Humidity
    00:00 +6°C° 0 mm 2 mps 701 mmHg 52%
    01:00 +7°C° 0 mm 1 mps 701 mmHg 51%
    02:00 +6°C° 0 mm 2 mps 701 mmHg 50%
    03:00 +6°C° 0 mm 2 mps 701 mmHg 48%
    04:00 +6°C° 0 mm 2 mps 701 mmHg 46%
    05:00 +5°C° 0 mm 2 mps 701 mmHg 48%
    06:00 +5°C° 0 mm 2 mps 702 mmHg 49%
    07:00 +4°C° 0 mm 2 mps 702 mmHg 51%
    08:00 +7°C° 0 mm 2 mps 702 mmHg 43%
    09:00 +9°C° 0 mm 2 mps 702 mmHg 35%
    10:00 +12°C° 0 mm 2 mps 702 mmHg 27%
    11:00 +13°C° 0 mm 2 mps 701 mmHg 23%
    12:00 +14°C° 0 mm 2 mps 701 mmHg 20%
    13:00 +16°C° 0 mm 2 mps 700 mmHg 16%
    14:00 +15°C° 0 mm 2 mps 700 mmHg 18%
    15:00 +15°C° 0 mm 2 mps 700 mmHg 19%
    16:00 +14°C° 0 mm 2 mps 700 mmHg 21%
    17:00 +13°C° 0 mm 2 mps 700 mmHg 21%
    18:00 +12°C° 0 mm 2 mps 700 mmHg 21%
    19:00 +10°C° 0 mm 2 mps 700 mmHg 21%
    20:00 +11°C° 0 mm 1 mps 700 mmHg 21%
    21:00 +10°C° 0 mm 1 mps 700 mmHg 20%
    22:00 +10°C° 0 mm 1 mps 700 mmHg 20%
    23:00 +9°C° 0 mm 1 mps 700 mmHg 20%

    19 June, Wednesday

    Time Temperature Precipitation Wind Pressure Humidity
    00:00 +9°C° 0 mm 1 mps 700 mmHg 21%
    01:00 +9°C° 0 mm 1 mps 700 mmHg 21%
    02:00 +8°C° 0 mm 1 mps 700 mmHg 22%
    03:00 +8°C° 0 mm 1 mps 699 mmHg 23%
    04:00 +8°C° 0 mm 1 mps 699 mmHg 24%
    05:00 +8°C° 0 mm 1 mps 699 mmHg 25%
    06:00 +7°C° 0 mm 1 mps 700 mmHg 26%
    07:00 +7°C° 0 mm 1 mps 700 mmHg 27%
    08:00 +10°C° 0 mm 1 mps 700 mmHg 24%
    09:00 +12°C° 0 mm 1 mps 701 mmHg 21%
    10:00 +14°C° 0 mm 1 mps 701 mmHg 18%
    11:00 +15°C° 0 mm 1 mps 701 mmHg 17%
    12:00 +16°C° 0 mm 1 mps 700 mmHg 17%
    13:00 +17°C° 0 mm 2 mps 699 mmHg 16%
    14:00 +16°C° 0 mm 2 mps 699 mmHg 18%
    15:00 +16°C° 0 mm 2 mps 699 mmHg 19%
    16:00 +15°C° 0 mm 2 mps 699 mmHg 21%
    17:00 +14°C° 0 mm 2 mps 698 mmHg 21%
    18:00 +13°C° 0 mm 2 mps 698 mmHg 22%
    19:00 +12°C° 0 mm 2 mps 698 mmHg 22%
    20:00 +11°C° 0 mm 1 mps 698 mmHg 24%
    21:00 +11°C° 0 mm 1 mps 698 mmHg 26%
    22:00 +10°C° 0 mm 1 mps 698 mmHg 29%
    23:00 +10°C° 0 mm 1 mps 697 mmHg 30%

    20 June, Thursday

    Time Temperature Precipitation Wind Pressure Humidity
    00:00 +10°C° 0 mm 1 mps 697 mmHg 31%
    01:00 +9°C° 0 mm 1 mps 697 mmHg 33%
    02:00 +9°C° 0 mm 1 mps 696 mmHg 32%
    03:00 +9°C° 0 mm 1 mps 696 mmHg 32%
    04:00 +9°C° 0 mm 1 mps 696 mmHg 32%
    05:00 +9°C° 0 mm 1 mps 696 mmHg 33%
    06:00 +9°C° 0 mm 1 mps 696 mmHg 34%
    07:00 +8°C° 0 mm 1 mps 696 mmHg 35%
    08:00 +11°C° 0 mm 1 mps 697 mmHg 32%
    09:00 +13°C° 0 mm 1 mps 697 mmHg 28%
    10:00 +15°C° 0 mm 1 mps 698 mmHg 25%
    11:00 +16°C° 0 mm 1 mps 697 mmHg 23%
    12:00 +18°C° 0 mm 1 mps 697 mmHg 21%
    13:00 +19°C° 0 mm 1 mps 696 mmHg 20%
    14:00 +19°C° 0 mm 1 mps 696 mmHg 21%
    15:00 +18°C° 0 mm 1 mps 696 mmHg 23%
    16:00 +18°C° 0 mm 1 mps 696 mmHg 25%
    17:00 +16°C° 0 mm 1 mps 696 mmHg 25%
    18:00 +15°C° 0 mm 1 mps 696 mmHg 26%
    19:00 +13°C° 0 mm 1 mps 696 mmHg 27%
    20:00 +13°C° 0 mm 2 mps 696 mmHg 28%
    21:00 +13°C° 0 mm 2 mps 696 mmHg 30%
    22:00 +13°C° 0 mm 2 mps 696 mmHg 32%
    23:00 +12°C° 0 mm 2 mps 696 mmHg 35%

    21 June, Friday

    Time Temperature Precipitation Wind Pressure Humidity
    00:00 +12°C° 0 mm 2 mps 696 mmHg 38%
    01:00 +10°C° 0 mm 3 mps 696 mmHg 42%
    02:00 +10°C° 0 mm 2 mps 696 mmHg 43%
    03:00 +10°C° 0 mm 2 mps 695 mmHg 44%
    04:00 +9°C° 0 mm 2 mps 695 mmHg 45%
    05:00 +10°C° 0 mm 2 mps 696 mmHg 45%
    06:00 +10°C° 0 mm 2 mps 696 mmHg 44%
    07:00 +10°C° 0 mm 2 mps 697 mmHg 44%
    08:00 +13°C° 0 mm 2 mps 697 mmHg 40%
    09:00 +15°C° 0 mm 2 mps 698 mmHg 36%
    10:00 +17°C° 0 mm 2 mps 699 mmHg 32%
    11:00 +18°C° 0 mm 3 mps 699 mmHg 28%
    12:00 +19°C° 0 mm 3 mps 699 mmHg 24%
    13:00 +20°C° 0 mm 3 mps 699 mmHg 20%
    14:00 +19°C° 0 mm 3 mps 699 mmHg 24%
    15:00 +19°C° 0 mm 3 mps 699 mmHg 29%
    16:00 +18°C° 0 mm 2 mps 699 mmHg 33%
    17:00 +16°C° 0 mm 2 mps 699 mmHg 38%
    18:00 +14°C° 0 mm 1 mps 699 mmHg 43%
    19:00 +12°C° 0 mm 0 mps 699 mmHg 48%
    20:00 +11°C° 0 mm 0 mps 699 mmHg 49%
    21:00 +11°C° 0 mm 0 mps 699 mmHg 51%
    22:00 +10°C° 0 mm 0 mps 699 mmHg 52%
    23:00 +10°C° 0 mm 0 mps 699 mmHg 54%
    Show more